Regional Weather Roundup
Issued by NWS

Home | Current Version | Previous Version | Text Only | Print | Product List | Glossary On
Versions: 1 2 3 4 5 6 7 8 9 10 11 12 13 14 15 16 17 18 19 20 21 22 23 24 25 26 27 28 29 30 31 32 33 34 35 36 37 38 39 40 41 42 43 44 45 46 47 48 49 50
742
ASUS42 KKEY 222310
RWRKEY

FLORIDA REGIONAL WEATHER ROUNDUP FOR THE FLORIDA KEYS
NATIONAL WEATHER SERVICE KEY WEST FLORIDA
600 PM EST WED FEB 22 2017

...SOUTH FLORIDA AND THE KEYS...

CITY           SKY/WX    TMP DP  RH WIND       PRES   REMARKS
FORT MYERS     CLOUDY    70  63  78 W10       29.65R
SW REGIONAL AP MOCLDY    70  60  70 W9        29.65S
NAPLES         CLOUDY    71  63  75 W8        29.65S
MIAMI          MOCLDY    68  62  81 VRB6      29.64F
WEST KENDALL   PTCLDY    69  64  84 S7        29.64S
HOMESTEAD      MOCLDY    70  68  94 S10       29.64S
MARATHON       MOCLDY    72  61  68 W13G20    29.66R
BOCA CHICA NAS LGT RAIN  71  61  70 NW15      29.67S
KEY WEST INTL  LGT RAIN  71  62  73 W15G23    29.68R

...INTERNATIONAL WEATHER...

CITY           SKY/WX    TMP DP  RH WIND       PRES   REMARKS
NASSAU BAHAMAS MOCLDY    75  63  64 SE8       29.75F
CANCUN MEXICO  MOSUNNY   79  54  41 NW16G28   29.80R
COZUMEL MEXICO MOSUNNY   81  57  44 N26       29.77S

ADJACENT COASTAL WATERS...

STATION/POSITION TIME  SKY/WX   TEMP    WIND        PRES    WAVE
                                AIR SEA DIR/SP/G            HT/PER
                 (UTC)          (F)     (DEG/KT/KT) (MB)    (FT/S)
PULASKI SHOAL LI 2300            70     290/  8/  9 1005.1F
SAND KEY         2250            68     320/ 17/ 20 1005.2F
LONG KEY         2200            72 74  280/ 13/ 15 1004.4R
MOLASSES REEF    NOT AVBL
FOWEY ROCKS      2300            71 74  180/ 26/ 28 1003.9F
Buoy 42097       2230                                 N/A     4/ 8

$$




USA.gov is the U.S. government's official web portal to all federal, state and local government web resources and services.